Location: Jackson Park
(37.2862°N, 79.9123°W)
Time: 14:30:28
(UTC+00:00)

Vanguard 2 - Pass Details

Date: 19 May 2026
Orbit: 553 x 2894 km, 32.9° (Epoch: 6 June)

Event Time Altitude Azimuth Distance (km) Brightness Sun altitude
Rises 06:48:41 0° 250° (WSW) 6,094 - -28.9°
Reaches altitude 10° 06:52:22 10° 248° (WSW) 5,293 - -28.6°
Exits shadow 06:58:13 29° 243° (WSW) 4,138 10.7 -28.1°
Maximum altitude 07:09:04 72° 168° (SSE) 2,998 10.2 -27.0°
Drops below altitude 10° 07:25:32 10° 89° (E) 5,231 12.2 -25.3°
Sets 07:29:09 0° 87° (E) 6,023 12.6 -24.9°
